• In India
  • List of Countries
  • For 7 days
  • Water Temperature
  • Satellite Maps
  • Weather Map
  • Weather Widgets
  • user-avatar
    Login

    Hourly Weather León

    Today, 24 September, Monday

    Time Temperature Precipitation Wind Pressure Humidity
    00:00 +27°C° 0 mm 4 mps 749 mmHg 75%
    01:00 +27°C° 0 mm 4 mps 748 mmHg 77%
    02:00 +26°C° 0 mm 4 mps 748 mmHg 79%
    03:00 +26°C° 0 mm 3 mps 748 mmHg 80%
    04:00 +26°C° 0 mm 3 mps 748 mmHg 81%
    05:00 +25°C° 0 mm 3 mps 748 mmHg 81%
    06:00 +26°C° 0 mm 3 mps 748 mmHg 81%
    07:00 +28°C° 0 mm 3 mps 748 mmHg 71%
    08:00 +30°C° 0 mm 3 mps 749 mmHg 61%
    09:00 +34°C° 0 mm 3 mps 749 mmHg 51%
    10:00 +35°C° 0 mm 3 mps 748 mmHg 47%
    11:00 +37°C° 0 mm 3 mps 748 mmHg 42%
    12:00 +38°C° 0 mm 3 mps 748 mmHg 37%
    13:00 +38°C° 0 mm 3 mps 747 mmHg 40%
    14:00 +37°C° 0 mm 3 mps 747 mmHg 42%
    15:00 +36°C° 0 mm 3 mps 746 mmHg 45%
    16:00 +35°C° 0.1 mm 3 mps 746 mmHg 51%
    17:00 +33°C° 0.1 mm 3 mps 747 mmHg 57%
    18:00 +31°C° 0.1 mm 3 mps 747 mmHg 63%
    19:00 +30°C° 0 mm 3 mps 748 mmHg 65%
    20:00 +29°C° 0 mm 4 mps 749 mmHg 67%
    21:00 +28°C° 0 mm 4 mps 749 mmHg 69%
    22:00 +28°C° 0 mm 4 mps 749 mmHg 71%
    23:00 +28°C° 0 mm 4 mps 749 mmHg 72%

    Tomorrow, 25 September, Tuesday

    Time Temperature Precipitation Wind Pressure Humidity
    00:00 +27°C° 0 mm 4 mps 749 mmHg 73%
    01:00 +27°C° 0 mm 4 mps 748 mmHg 74%
    02:00 +27°C° 0 mm 3 mps 748 mmHg 76%
    03:00 +26°C° 0 mm 3 mps 748 mmHg 77%
    04:00 +26°C° 0 mm 3 mps 748 mmHg 77%
    05:00 +26°C° 0 mm 3 mps 748 mmHg 77%
    06:00 +26°C° 0 mm 3 mps 748 mmHg 76%
    07:00 +28°C° 0 mm 3 mps 749 mmHg 70%
    08:00 +29°C° 0 mm 3 mps 749 mmHg 64%
    09:00 +31°C° 0 mm 3 mps 750 mmHg 58%
    10:00 +33°C° 0 mm 3 mps 749 mmHg 55%
    11:00 +34°C° 0 mm 3 mps 749 mmHg 52%
    12:00 +35°C° 0 mm 3 mps 749 mmHg 48%
    13:00 +34°C° 0.1 mm 3 mps 748 mmHg 55%
    14:00 +33°C° 0.1 mm 3 mps 747 mmHg 62%
    15:00 +30°C° 0.1 mm 4 mps 747 mmHg 69%
    16:00 +29°C° 0.2 mm 4 mps 747 mmHg 73%
    17:00 +28°C° 0.2 mm 4 mps 747 mmHg 78%
    18:00 +28°C° 0.2 mm 4 mps 747 mmHg 82%
    19:00 +27°C° 0.5 mm 4 mps 748 mmHg 84%
    20:00 +27°C° 0.5 mm 4 mps 749 mmHg 87%
    21:00 +26°C° 0.5 mm 4 mps 749 mmHg 90%
    22:00 +26°C° 0.4 mm 4 mps 749 mmHg 90%
    23:00 +26°C° 0.4 mm 3 mps 749 mmHg 90%

    Day after tomorrow, 26 September, Wednesday

    Time Temperature Precipitation Wind Pressure Humidity
    00:00 +26°C° 0.4 mm 3 mps 749 mmHg 90%
    01:00 +26°C° 0.1 mm 3 mps 748 mmHg 90%
    02:00 +26°C° 0.1 mm 3 mps 748 mmHg 90%
    03:00 +25°C° 0.1 mm 3 mps 747 mmHg 90%
    04:00 +25°C° 0.1 mm 3 mps 748 mmHg 89%
    05:00 +25°C° 0.1 mm 3 mps 748 mmHg 89%
    06:00 +25°C° 0.1 mm 3 mps 748 mmHg 88%
    07:00 +27°C° 0 mm 3 mps 749 mmHg 79%
    08:00 +29°C° 0 mm 4 mps 749 mmHg 70%
    09:00 +32°C° 0 mm 4 mps 750 mmHg 62%
    10:00 +33°C° 0 mm 4 mps 749 mmHg 57%
    11:00 +35°C° 0 mm 4 mps 749 mmHg 52%
    12:00 +36°C° 0 mm 4 mps 749 mmHg 48%
    13:00 +36°C° 0.3 mm 4 mps 748 mmHg 48%
    14:00 +36°C° 0.3 mm 4 mps 747 mmHg 48%
    15:00 +36°C° 0.3 mm 4 mps 746 mmHg 47%
    16:00 +34°C° 0.5 mm 4 mps 747 mmHg 53%
    17:00 +33°C° 0.5 mm 3 mps 747 mmHg 60%
    18:00 +30°C° 0.5 mm 3 mps 747 mmHg 66%
    19:00 +29°C° 0.1 mm 3 mps 748 mmHg 69%
    20:00 +28°C° 0.1 mm 3 mps 749 mmHg 72%
    21:00 +28°C° 0.1 mm 3 mps 749 mmHg 75%
    22:00 +27°C° 0 mm 3 mps 749 mmHg 77%
    23:00 +27°C° 0 mm 3 mps 749 mmHg 79%

    27 September, Thursday

    Time Temperature Precipitation Wind Pressure Humidity
    00:00 +27°C° 0 mm 2 mps 749 mmHg 81%
    01:00 +26°C° 0 mm 2 mps 748 mmHg 82%
    02:00 +26°C° 0 mm 2 mps 748 mmHg 83%
    03:00 +26°C° 0 mm 3 mps 747 mmHg 84%
    04:00 +26°C° 0.1 mm 3 mps 747 mmHg 83%
    05:00 +26°C° 0.1 mm 3 mps 748 mmHg 82%
    06:00 +26°C° 0.1 mm 3 mps 748 mmHg 82%
    07:00 +28°C° 0 mm 3 mps 748 mmHg 73%
    08:00 +30°C° 0 mm 4 mps 749 mmHg 64%
    09:00 +34°C° 0 mm 4 mps 750 mmHg 55%
    10:00 +35°C° 0 mm 4 mps 749 mmHg 50%
    11:00 +36°C° 0 mm 4 mps 749 mmHg 45%
    12:00 +38°C° 0 mm 4 mps 748 mmHg 40%
    13:00 +37°C° 0.1 mm 4 mps 747 mmHg 43%
    14:00 +36°C° 0.1 mm 4 mps 747 mmHg 45%
    15:00 +36°C° 0.1 mm 4 mps 746 mmHg 48%
    16:00 +34°C° 0.4 mm 3 mps 746 mmHg 53%
    17:00 +33°C° 0.4 mm 3 mps 747 mmHg 59%
    18:00 +30°C° 0.4 mm 3 mps 747 mmHg 65%
    19:00 +29°C° 0.2 mm 3 mps 748 mmHg 69%
    20:00 +29°C° 0.2 mm 3 mps 749 mmHg 72%
    21:00 +28°C° 0.2 mm 3 mps 749 mmHg 76%
    22:00 +27°C° 0.1 mm 3 mps 749 mmHg 78%
    23:00 +27°C° 0.1 mm 3 mps 749 mmHg 79%

    28 September, Friday

    Time Temperature Precipitation Wind Pressure Humidity
    00:00 +27°C° 0.1 mm 3 mps 749 mmHg 81%
    01:00 +26°C° 0.4 mm 3 mps 748 mmHg 82%
    02:00 +26°C° 0.4 mm 3 mps 748 mmHg 82%
    03:00 +26°C° 0.4 mm 3 mps 748 mmHg 83%
    04:00 +26°C° 0.2 mm 2 mps 748 mmHg 83%
    05:00 +26°C° 0.2 mm 2 mps 748 mmHg 83%
    06:00 +26°C° 0.2 mm 2 mps 749 mmHg 83%
    07:00 +28°C° 0 mm 2 mps 749 mmHg 75%
    08:00 +30°C° 0 mm 2 mps 749 mmHg 66%
    09:00 +31°C° 0 mm 3 mps 750 mmHg 58%
    10:00 +34°C° 0 mm 3 mps 749 mmHg 53%
    11:00 +35°C° 0 mm 3 mps 749 mmHg 48%
    12:00 +37°C° 0 mm 3 mps 748 mmHg 42%
    13:00 +36°C° 0 mm 3 mps 747 mmHg 46%
    14:00 +36°C° 0 mm 3 mps 747 mmHg 49%
    15:00 +35°C° 0 mm 3 mps 746 mmHg 52%
    16:00 +34°C° 0.2 mm 3 mps 747 mmHg 56%
    17:00 +32°C° 0.2 mm 2 mps 747 mmHg 61%
    18:00 +30°C° 0.2 mm 2 mps 748 mmHg 65%
    19:00 +30°C° 0.5 mm 2 mps 748 mmHg 68%
    20:00 +29°C° 0.5 mm 2 mps 749 mmHg 70%
    21:00 +28°C° 0.5 mm 2 mps 749 mmHg 73%
    22:00 +28°C° 0.1 mm 2 mps 749 mmHg 74%
    23:00 +28°C° 0.1 mm 3 mps 749 mmHg 74%

    29 September, Saturday

    Time Temperature Precipitation Wind Pressure Humidity
    00:00 +27°C° 0.1 mm 3 mps 749 mmHg 75%
    01:00 +27°C° 0 mm 3 mps 748 mmHg 76%
    02:00 +27°C° 0 mm 3 mps 748 mmHg 76%
    03:00 +27°C° 0 mm 3 mps 748 mmHg 77%
    04:00 +27°C° 0 mm 3 mps 748 mmHg 77%
    05:00 +27°C° 0 mm 3 mps 749 mmHg 77%
    06:00 +27°C° 0 mm 3 mps 749 mmHg 77%
    07:00 +29°C° 0 mm 4 mps 749 mmHg 69%
    08:00 +32°C° 0 mm 4 mps 750 mmHg 62%
    09:00 +34°C° 0 mm 5 mps 750 mmHg 54%
    10:00 +35°C° 0.1 mm 5 mps 749 mmHg 51%
    11:00 +36°C° 0.1 mm 5 mps 749 mmHg 47%
    12:00 +37°C° 0.1 mm 4 mps 748 mmHg 44%
    13:00 +36°C° 0.2 mm 5 mps 748 mmHg 48%
    14:00 +35°C° 0.2 mm 5 mps 747 mmHg 53%
    15:00 +34°C° 0.2 mm 5 mps 746 mmHg 57%
    16:00 +32°C° 0.1 mm 5 mps 747 mmHg 62%
    17:00 +30°C° 0.1 mm 5 mps 748 mmHg 67%
    18:00 +29°C° 0.1 mm 5 mps 748 mmHg 72%
    19:00 +28°C° 0.1 mm 5 mps 749 mmHg 75%
    20:00 +28°C° 0.1 mm 5 mps 749 mmHg 79%
    21:00 +27°C° 0.1 mm 5 mps 750 mmHg 82%
    22:00 +27°C° 0 mm 4 mps 749 mmHg 82%
    23:00 +26°C° 0 mm 4 mps 749 mmHg 82%
    Show more